Buckland, AK

1:41 PM AKST on February 07, 2016 (GMT -0900)
Buckland

Weather History for PABL - May, 2013

Change the Weather History Date:

Sunday, May 12, 2013

  Actual Average (PASK) Record (PASK)
Temperature  
Mean Temperature 24 °F -  
Max Temperature 33 °F 36 °F 50 °F (2008)
Min Temperature 14 °F 23 °F 12 °F (2011)
Degree Days  
Heating Degree Days 42    
Moisture  
Dew Point 15 °F    
Average Humidity 78    
Maximum Humidity 93    
Minimum Humidity 68    
Precipitation  
Precipitation 0.00 in - - ()
Sea Level Pressure  
Sea Level Pressure 29.87 in    
Wind  
Wind Speed 15 mph (WNW)    
Max Wind Speed 31 mph    
Max Gust Speed 36 mph    
Visibility 8 miles    
Events      
Averages and records for this station are not official NWS values.
T = Trace of Precipitation, MM = Missing Value Source: NWS Daily Summary

Daily Weather History Graph

Daily Weather History Graph

Search for Another Location

Airport or City:

Trip Planner

Search our weather history database for the weather conditions in past years. The results will help you decide how hot, cold, wet, or windy it might be!

Date:

Astronomy

May. 12, 2013 Rise Set
Actual Time 5:16 AM AKDT 12:08 AM AKDT
Civil Twilight 3:13 AM AKDT 2:08 AM AKDT
Nautical Twilight Sun does not rise Sun does not rise
Astronomical Twilight Sun does not rise Sun does not rise
Moon 7:03 AM AKDT (5/12) 2:13 AM AKDT (5/12)
Length of Visible Light 22h 55m
Length of Day
18h 51m
Waxing Crescent, 7% of the Moon is Illuminated
May 12
Waxing Crescent
May 17
First Quarter
May 24
Full
May 31
Last Quarter
Jun 8
New

Hourly Weather History & Observations

Time (AKDT) Temp. Windchill Dew Point Humidity Pressure Visibility Wind Dir Wind Speed Gust Speed Precip Events Conditions
12:16 AM 30.2 °F 23.4 °F 26.6 °F 86% 29.86 in 10.0 mi SE 6.9 mph - N/A   Scattered Clouds
12:36 AM 30.2 °F 23.4 °F 26.6 °F 86% 29.86 in 10.0 mi ESE 6.9 mph - N/A   Scattered Clouds
12:56 AM 30.2 °F 23.4 °F 26.6 °F 86% 29.85 in 10.0 mi ESE 6.9 mph - N/A   Scattered Clouds
1:36 AM 30.2 °F - 26.6 °F 86% 29.83 in 10.0 mi Calm Calm - N/A   Overcast
1:56 AM 30.2 °F - 26.6 °F 86% 29.83 in 10.0 mi Calm Calm - N/A   Overcast
2:16 AM 30.2 °F 25.4 °F 26.6 °F 86% 29.82 in 10.0 mi SSE 4.6 mph - N/A   Overcast
2:36 AM 30.2 °F 25.4 °F 26.6 °F 86% 29.82 in 10.0 mi South 4.6 mph - N/A   Overcast
2:56 AM 32.0 °F 27.5 °F 26.6 °F 80% 29.81 in 10.0 mi SW 4.6 mph - N/A   Overcast
3:16 AM 33.8 °F - 28.4 °F 81% 29.81 in 10.0 mi Calm Calm - N/A   Overcast
3:36 AM 33.8 °F 29.6 °F 28.4 °F 81% 29.80 in 10.0 mi SSW 4.6 mph - N/A   Overcast
3:56 AM 33.8 °F 29.6 °F 28.4 °F 81% 29.80 in 10.0 mi SSW 4.6 mph - N/A   Overcast
4:16 AM 33.8 °F 25.3 °F 28.4 °F 81% 29.79 in 10.0 mi WSW 11.5 mph - N/A   Mostly Cloudy
4:36 AM 33.8 °F 23.2 °F 30.2 °F 87% 29.79 in 5.0 mi WSW 17.3 mph - N/A   Overcast
4:56 AM 32.0 °F 21.2 °F 30.2 °F 93% 29.78 in 2.5 mi WSW 16.1 mph 20.7 mph N/A   Overcast
5:16 AM 32.0 °F 19.8 °F 30.2 °F 93% 29.78 in 1.0 mi West 20.7 mph 24.2 mph N/A   Overcast
5:36 AM 30.2 °F 17.8 °F 28.4 °F 93% 29.78 in 1.5 mi West 19.6 mph 24.2 mph N/A   Overcast
5:56 AM 30.2 °F 19.3 °F 28.4 °F 93% 29.79 in 1.0 mi West 15.0 mph - N/A   Overcast
6:16 AM 26.6 °F 11.4 °F 21.2 °F 80% 29.80 in 1.0 mi WNW 25.3 mph 29.9 mph N/A   Overcast
6:36 AM 23.0 °F 6.9 °F 19.4 °F 86% 29.82 in 0.8 mi WNW 24.2 mph 31.1 mph N/A   Overcast
6:56 AM 21.2 °F 3.5 °F 17.6 °F 86% 29.82 in 0.8 mi WNW 27.6 mph 33.4 mph N/A   Overcast
7:16 AM 19.4 °F 1.1 °F 15.8 °F 86% 29.83 in 1.2 mi WNW 27.6 mph 33.4 mph N/A   Overcast
7:36 AM 17.6 °F -2.2 °F 12.2 °F 79% 29.84 in 2.0 mi WNW 31.1 mph 35.7 mph N/A   Overcast
7:56 AM 15.8 °F -3.4 °F 10.4 °F 79% 29.84 in 2.0 mi WNW 26.5 mph 35.7 mph N/A   Overcast
8:16 AM 15.8 °F -3.1 °F 10.4 °F 79% 29.85 in 3.0 mi WNW 25.3 mph 35.7 mph N/A   Overcast
8:36 AM 15.8 °F -4.7 °F 8.6 °F 73% 29.86 in 2.0 mi WNW 31.1 mph 35.7 mph N/A   Overcast
8:56 AM 14.0 °F -6.2 °F 8.6 °F 79% 29.88 in 7.0 mi WNW 27.6 mph 33.4 mph N/A   Overcast
9:16 AM 14.0 °F -6.2 °F 8.6 °F 79% 29.88 in 7.0 mi WNW 27.6 mph 34.5 mph N/A   Scattered Clouds
9:36 AM 14.0 °F -5.1 °F 8.6 °F 79% 29.90 in 10.0 mi WNW 24.2 mph 29.9 mph N/A   Clear
9:56 AM 14.0 °F -5.1 °F 8.6 °F 79% 29.90 in 10.0 mi WNW 24.2 mph 27.6 mph N/A   Clear
10:16 AM 14.0 °F -4.7 °F 8.6 °F 79% 29.91 in 10.0 mi WNW 23.0 mph 31.1 mph N/A   Clear
10:36 AM 14.0 °F -4.3 °F 6.8 °F 73% 29.92 in 10.0 mi WNW 21.9 mph 32.2 mph N/A   Clear
10:56 AM 15.8 °F -2.7 °F 6.8 °F 68% 29.92 in 10.0 mi NW 24.2 mph 28.8 mph N/A   Clear
11:16 AM 15.8 °F -1.5 °F 6.8 °F 68% 29.93 in 10.0 mi WNW 20.7 mph 29.9 mph N/A   Clear
11:36 AM 15.8 °F -0.6 °F 8.6 °F 73% 29.93 in 10.0 mi WNW 18.4 mph 26.5 mph N/A   Clear
11:56 AM 15.8 °F -1.9 °F 6.8 °F 68% 29.93 in 10.0 mi WNW 21.9 mph 29.9 mph N/A   Clear
12:16 PM 15.8 °F -1.5 °F 6.8 °F 68% 29.94 in 10.0 mi WNW 20.7 mph 31.1 mph N/A   Clear
12:36 PM 15.8 °F -1.5 °F 8.6 °F 73% 29.94 in 10.0 mi WNW 20.7 mph 26.5 mph N/A   Clear
12:56 PM 15.8 °F -2.3 °F 8.6 °F 73% 29.93 in 10.0 mi WNW 23.0 mph 28.8 mph N/A   Clear
1:16 PM 15.8 °F -2.7 °F 6.8 °F 68% 29.93 in 10.0 mi WNW 24.2 mph 31.1 mph N/A   Clear
1:36 PM 15.8 °F -2.3 °F 6.8 °F 68% 29.94 in 10.0 mi WNW 23.0 mph 29.9 mph N/A   Clear
1:56 PM 15.8 °F -2.7 °F 8.6 °F 73% 29.93 in 10.0 mi WNW 24.2 mph 33.4 mph N/A   Clear
2:16 PM 15.8 °F -3.4 °F 8.6 °F 73% 29.94 in 10.0 mi NW 26.5 mph 31.1 mph N/A   Clear
2:36 PM 17.6 °F 0.1 °F 10.4 °F 73% 29.93 in 10.0 mi WNW 23.0 mph 28.8 mph N/A   Partly Cloudy
2:56 PM 17.6 °F 0.1 °F 10.4 °F 73% 29.93 in 10.0 mi WNW 23.0 mph 27.6 mph N/A   Scattered Clouds
3:16 PM 19.4 °F 1.8 °F 10.4 °F 68% 29.92 in 10.0 mi NW 25.3 mph - N/A   Overcast
3:36 PM 19.4 °F 2.5 °F 10.4 °F 68% 29.93 in 10.0 mi NW 23.0 mph 26.5 mph N/A   Overcast
3:56 PM 17.6 °F 2.7 °F 12.2 °F 79% 29.92 in 7.0 mi WNW 16.1 mph - N/A   Overcast
4:16 PM 19.4 °F 3.6 °F 12.2 °F 74% 29.91 in 9.0 mi WNW 19.6 mph 25.3 mph N/A   Overcast
4:36 PM 19.4 °F 4.1 °F 12.2 °F 74% 29.91 in 10.0 mi WNW 18.4 mph 24.2 mph N/A   Overcast
4:56 PM 19.4 °F 4.5 °F 14.0 °F 80% 29.90 in 8.0 mi WNW 17.3 mph - N/A   Overcast
5:16 PM 19.4 °F 4.5 °F 15.8 °F 86% 29.89 in 5.0 mi WNW 17.3 mph - N/A   Overcast
5:36 PM 21.2 °F 3.9 °F 15.8 °F 80% 29.88 in 3.0 mi NNW 26.5 mph - N/A   Overcast
5:56 PM 17.6 °F -0.3 °F 12.2 °F 79% 29.90 in 9.0 mi NW 24.2 mph 28.8 mph N/A   Mostly Cloudy
6:16 PM 17.6 °F -0.3 °F 10.4 °F 73% 29.90 in 10.0 mi NW 24.2 mph - N/A   Overcast
6:36 PM 17.6 °F -0.3 °F 10.4 °F 73% 29.91 in 7.0 mi NW 24.2 mph 31.1 mph N/A   Mostly Cloudy
6:56 PM 17.6 °F 1.3 °F 10.4 °F 73% 29.91 in 10.0 mi NW 19.6 mph - N/A   Overcast
7:16 PM 17.6 °F 0.1 °F 10.4 °F 73% 29.90 in 10.0 mi NW 23.0 mph - N/A   Overcast
7:36 PM 17.6 °F 0.1 °F 10.4 °F 73% 29.90 in 10.0 mi WNW 23.0 mph - N/A   Overcast
7:56 PM 17.6 °F 1.7 °F 10.4 °F 73% 29.90 in 10.0 mi NW 18.4 mph - N/A   Overcast
8:16 PM 17.6 °F 2.7 °F 12.2 °F 79% 29.89 in 10.0 mi WNW 16.1 mph - N/A   Overcast
8:36 PM 19.4 °F 4.5 °F 12.2 °F 74% 29.89 in 10.0 mi WNW 17.3 mph 24.2 mph N/A   Overcast
8:56 PM 19.4 °F 4.5 °F 12.2 °F 74% 29.88 in 10.0 mi WNW 17.3 mph - N/A   Overcast
9:16 PM 19.4 °F 6.0 °F 12.2 °F 74% 29.88 in 10.0 mi WNW 13.8 mph - N/A   Overcast
9:36 PM 19.4 °F 4.5 °F 14.0 °F 80% 29.88 in 10.0 mi WNW 17.3 mph - N/A   Overcast
9:56 PM 19.4 °F 6.0 °F 15.8 °F 86% 29.88 in 10.0 mi WNW 13.8 mph - N/A   Overcast
10:16 PM 19.4 °F 3.6 °F 14.0 °F 80% 29.88 in 10.0 mi NW 19.6 mph - N/A   Overcast
10:36 PM 19.4 °F 2.8 °F 14.0 °F 80% 29.87 in 10.0 mi WNW 21.9 mph 25.3 mph N/A   Overcast
10:56 PM 17.6 °F 2.2 °F 12.2 °F 79% 29.87 in 10.0 mi WNW 17.3 mph - N/A   Mostly Cloudy
11:16 PM 17.6 °F 3.7 °F 12.2 °F 79% 29.87 in 10.0 mi WNW 13.8 mph - N/A   Mostly Cloudy
11:36 PM 17.6 °F 1.7 °F 12.2 °F 79% 29.88 in 10.0 mi West 18.4 mph - N/A   Overcast
11:56 PM 17.6 °F 2.2 °F 12.2 °F 79% 29.87 in 10.0 mi WNW 17.3 mph - N/A   Overcast